Time_in_sec,Mx,My,Mz
1314362318.16893792,-0.05670738,0.86130762,-0.74844587
1314362318.21747613,-0.06032837,0.85957783,-0.74971521
1314362318.26932836,-0.05880763,0.86235714,-0.74911159
1314362318.31761503,-0.06228082,0.85962498,-0.74843287
1314362318.36946869,-0.05758989,0.86162591,-0.74978727
1314362318.41750336,-0.06006496,0.86114663,-0.75006056
1314362318.46718431,-0.05814410,0.86125171,-0.74995059
1314362318.50946665,-0.06087650,0.85962766,-0.75009596
1314362318.57057881,-0.06046259,0.86021495,-0.74959350
1314362318.61744666,-0.05959597,0.86096048,-0.74874401
1314362318.66946340,-0.05695432,0.86489236,-0.74982888
1314362318.72160697,-0.06018387,0.86061728,-0.75172740
1314362318.76709723,-0.05644583,0.86377347,-0.75287735
1314362318.81705880,-0.06116435,0.85823435,-0.75050455
1314362318.86953139,-0.05547385,0.86047107,-0.75113231
1314362318.91763377,-0.06118555,0.86090934,-0.75052583
1314362318.96866179,-0.05610819,0.86303753,-0.75226140
1314362319.01748490,-0.06038634,0.85988694,-0.75100869
1314362319.06851482,-0.05710899,0.85997915,-0.75108874
1314362319.12159681,-0.05996431,0.86064333,-0.75072175
1314362319.17022109,-0.05745668,0.86101383,-0.75218982
1314362319.21717453,-0.05988992,0.86233187,-0.75381565
1314362319.26699305,-0.05576867,0.86210692,-0.74901515
1314362319.31706238,-0.06071082,0.85799187,-0.75208646
1314362319.36961603,-0.05617845,0.86171150,-0.75096792
1314362319.41754007,-0.06023477,0.85986376,-0.75266397
1314362319.46899843,-0.05771314,0.86376917,-0.75120604
1314362319.51716566,-0.06043004,0.86010617,-0.75133520
1314362319.56948638,-0.05531885,0.86426413,-0.75227934
1314362319.61697125,-0.06099050,0.85947859,-0.75163120
1314362319.66731048,-0.05623036,0.86108536,-0.75190550
1314362319.71700048,-0.05967217,0.86227196,-0.75211287
1314362319.76962233,-0.05652422,0.86249161,-0.75206715
1314362319.81749630,-0.06030793,0.86089551,-0.75374943
1314362319.86910796,-0.05616628,0.86120027,-0.75082922
1314362319.92062593,-0.06090914,0.85936052,-0.75256491
1314362319.96866155,-0.05567590,0.86339259,-0.75376940
1314362320.02083230,-0.05903753,0.86153531,-0.75529116
1314362320.06788707,-0.05657708,0.86301059,-0.75287920
1314362320.12051034,-0.06014022,0.85910702,-0.75345796
1314362320.16858983,-0.05585086,0.86301970,-0.75444764
1314362320.21749496,-0.05904377,0.85924655,-0.75567693
1314362320.26913238,-0.05772847,0.86242211,-0.75616163
1314362320.31761432,-0.05911284,0.86078638,-0.75663173
1314362320.36948228,-0.05371277,0.86519283,-0.75729269
1314362320.41750360,-0.06113797,0.85953152,-0.75633657
1314362320.46948838,-0.05494766,0.86304432,-0.75761616
1314362320.51758718,-0.05903047,0.86054087,-0.75756443
1314362320.56947994,-0.05352683,0.86212867,-0.75685644
1314362320.61755514,-0.06041780,0.86030513,-0.75791103
1314362320.66907811,-0.05305788,0.86313075,-0.75576341
1314362320.71762252,-0.05882100,0.85953242,-0.75875247
1314362320.76868844,-0.05428950,0.86456841,-0.75785798
1314362320.81703687,-0.05637771,0.86296868,-0.76091844
1314362320.86949778,-0.05431914,0.86225945,-0.75636637
1314362320.90947342,-0.05879688,0.85969853,-0.75869662
1314362320.96895885,-0.05633388,0.86160386,-0.76071537
1314362321.01744580,-0.05690944,0.86197215,-0.75887316
1314362321.06850863,-0.05497219,0.86410910,-0.75824088
1314362321.11761570,-0.05698679,0.86046070,-0.76034194
1314362321.16829085,-0.05314519,0.86574119,-0.76142377
1314362321.21760559,-0.05814051,0.86018634,-0.76099926
1314362321.26948214,-0.05458865,0.86243826,-0.76081133
1314362321.32090926,-0.05765524,0.86210048,-0.76179069
1314362321.36948729,-0.05327650,0.86406314,-0.75927180
1314362321.41744614,-0.05851787,0.85982758,-0.76276273
1314362321.46951652,-0.05453366,0.86359739,-0.76202452
1314362321.52161336,-0.05589065,0.86055702,-0.76221412
1314362321.56948948,-0.05324502,0.86306405,-0.76114106
1314362321.62061620,-0.05658830,0.86186403,-0.76454526
1314362321.66982722,-0.05506056,0.86293870,-0.75950044
1314362321.70948720,-0.05737664,0.86046737,-0.76417774
1314362321.76870227,-0.05701959,0.86133897,-0.76268762
1314362321.81747508,-0.05722508,0.86071748,-0.76390249
1314362321.86960936,-0.05238061,0.86090863,-0.76295364
1314362321.91704988,-0.05728203,0.86072838,-0.76484513
1314362321.97025704,-0.05177411,0.86567247,-0.76818758
1314362322.01703191,-0.05699827,0.86059624,-0.76469362
1314362322.06999350,-0.05294908,0.86221558,-0.76541156
1314362322.12050533,-0.05723209,0.86252457,-0.76606339
1314362322.16954565,-0.05229502,0.86323160,-0.76578403
1314362322.22358036,-0.05687005,0.86153626,-0.76925552
1314362322.26950645,-0.05241291,0.86478078,-0.76754683
1314362322.32060122,-0.05632799,0.86048883,-0.76720363
1314362322.36953902,-0.05346268,0.86274874,-0.76705539
1314362322.42162323,-0.05443002,0.86128384,-0.77193081
1314362322.46963620,-0.05208045,0.86250126,-0.76912075
1314362322.51750278,-0.05616628,0.86038005,-0.76907206
1314362322.56967711,-0.05134496,0.86441690,-0.77030039
1314362322.62146306,-0.05536273,0.86088324,-0.76929790
1314362322.66968417,-0.05434456,0.86177635,-0.77045351
1314362322.71701741,-0.05494360,0.86185980,-0.77391839
1314362322.77013421,-0.05130304,0.86500901,-0.77440286
1314362322.82049584,-0.05458577,0.86056882,-0.77268070
1314362322.86986089,-0.05256711,0.86360514,-0.77285534
1314362322.90959811,-0.05397454,0.86184710,-0.77372825
1314362322.96862841,-0.05317931,0.86235172,-0.77408868
1314362323.02064061,-0.05525376,0.86322635,-0.77400565
1314362323.06959224,-0.05031675,0.86291564,-0.77385277
1314362323.12058997,-0.05385234,0.86066061,-0.77377141
1314362323.16950536,-0.05241499,0.86371028,-0.77451646
1314362323.21760798,-0.05363248,0.86336416,-0.77659684
1314362323.27000570,-0.05079282,0.86189026,-0.77279907
1314362323.30948520,-0.05413301,0.86142826,-0.77379334
1314362323.36966038,-0.05492646,0.85965097,-0.77355736
1314362323.42474651,-0.05423683,0.86038101,-0.77110779
1314362323.46905231,-0.05121775,0.86568940,-0.77030259
1314362323.52062845,-0.05593020,0.86206275,-0.77175480
1314362323.56956148,-0.05191451,0.86483353,-0.77288586
1314362323.62161493,-0.05666569,0.86014712,-0.77057517
1314362323.66948605,-0.05333048,0.86226392,-0.76945943
1314362323.72082496,-0.05586214,0.86065030,-0.77080095
1314362323.76888347,-0.05300894,0.86454171,-0.76838452
1314362323.82207537,-0.05644393,0.86076546,-0.76909101
1314362323.86861658,-0.05250455,0.86311978,-0.76700288
1314362323.91704988,-0.05641352,0.85908109,-0.76652712
1314362323.97096419,-0.05241707,0.86325496,-0.76780397
1314362324.02058649,-0.05712221,0.86280739,-0.76874286
1314362324.06950879,-0.05485418,0.86119223,-0.76309842
1314362324.12049675,-0.05720471,0.86122245,-0.76350254
1314362324.16964269,-0.05415434,0.86258107,-0.76266593
1314362324.22145057,-0.05560172,0.86172074,-0.76408476
1314362324.26959682,-0.05489581,0.86244768,-0.76136583
1314362324.32062840,-0.05857073,0.86044908,-0.76129436
1314362324.36950254,-0.05272215,0.86433488,-0.76138884
1314362324.42062593,-0.05804596,0.85953218,-0.75951284
1314362324.46952701,-0.05576748,0.86254424,-0.75765967
1314362324.50948930,-0.05910369,0.86055487,-0.75877643
1314362324.56853604,-0.05958677,0.86143911,-0.75760323
1314362324.62080550,-0.05834897,0.86116993,-0.75752985
1314362324.66883874,-0.05585603,0.86151874,-0.75698614
1314362324.71833682,-0.05818618,0.86205399,-0.75699037
1314362324.76947427,-0.05697992,0.86186868,-0.75289387
1314362324.82145405,-0.05970477,0.86105537,-0.75733882
1314362324.86947465,-0.05682123,0.86214215,-0.75476539
1314362324.92147279,-0.05913321,0.86048645,-0.75247097
1314362324.96949506,-0.05689535,0.86442155,-0.75344491
1314362325.02425122,-0.06211938,0.86127830,-0.75197816
1314362325.06947017,-0.05801223,0.86275935,-0.75175244
1314362325.12146926,-0.05929903,0.86008716,-0.75073314
1314362325.16953921,-0.05652416,0.86350936,-0.75194061
1314362325.21912265,-0.05804388,0.86070520,-0.75026286
1314362325.26950884,-0.05863386,0.85980415,-0.74881405
1314362325.32081556,-0.06021956,0.85907280,-0.75024188
1314362325.36946988,-0.05684968,0.86296403,-0.74833232
1314362325.42076850,-0.06014004,0.86236531,-0.74851757
1314362325.46861053,-0.05640319,0.86269820,-0.74776787
1314362325.52080059,-0.06173495,0.86074519,-0.75020760
1314362325.56947589,-0.05692801,0.86259735,-0.74967593
1314362325.62150574,-0.05890414,0.86418134,-0.75275379
1314362325.66950202,-0.05634926,0.86286443,-0.75138897
1314362325.70946813,-0.05981256,0.86143297,-0.75681114
1314362325.76859069,-0.05913315,0.86140168,-0.75462478
1314362325.82171154,-0.05852387,0.86191738,-0.75580114
1314362325.86958933,-0.05641221,0.86445254,-0.75677186
1314362325.92162204,-0.05704501,0.86167610,-0.75853193
1314362325.96946335,-0.05351530,0.86764628,-0.76052010
1314362326.02059197,-0.05813938,0.86209440,-0.76074511
1314362326.06955075,-0.05407095,0.86231071,-0.76131725
1314362326.12149644,-0.05576546,0.86208439,-0.76221836
1314362326.16889119,-0.05400164,0.86473930,-0.76213658
1314362326.22146821,-0.05584171,0.86237812,-0.76571375
1314362326.26857376,-0.05243328,0.86448085,-0.76338601
1314362326.32059145,-0.05509922,0.86248660,-0.76473248
1314362326.37332964,-0.05238149,0.86296904,-0.76498193
1314362326.42161417,-0.05409126,0.86251587,-0.76843172
1314362326.46949434,-0.05174270,0.86375815,-0.76790303
1314362326.52145505,-0.05693110,0.86114162,-0.76804841
1314362326.56860471,-0.05306697,0.86366224,-0.76945472
1314362326.62443566,-0.05354619,0.86098367,-0.76865715
1314362326.66859150,-0.05378208,0.86214912,-0.77015555
1314362326.72061515,-0.05558034,0.86168820,-0.77280527
1314362326.76947451,-0.05144563,0.86481780,-0.77191937
1314362326.82062554,-0.05607066,0.86051363,-0.76973850
1314362326.86950660,-0.05150876,0.86366022,-0.77084088
1314362326.92054749,-0.05475749,0.86190856,-0.77047831
1314362326.96886945,-0.05219424,0.86455858,-0.77075297
1314362327.02442551,-0.05585086,0.86219949,-0.77269053
1314362327.06881070,-0.05060675,0.86086160,-0.77210969
1314362327.12062430,-0.05538198,0.86218381,-0.77172405
1314362327.16959405,-0.05149867,0.86238611,-0.77083075
1314362327.22059703,-0.05352462,0.86410683,-0.77471763
1314362327.26951551,-0.05203971,0.86340868,-0.77060121
1314362327.32050157,-0.05461306,0.86193031,-0.77261710
1314362327.36861467,-0.05166745,0.86328429,-0.77124977
1314362327.42147493,-0.05434462,0.86065608,-0.77286047
1314362327.46947646,-0.05123925,0.86317384,-0.77323699
1314362327.52073431,-0.05690069,0.85904717,-0.77460599
1314362327.56946588,-0.04999932,0.86458278,-0.77518880
1314362327.62064266,-0.05456329,0.86077577,-0.77193469
1314362327.66948223,-0.05159327,0.86202258,-0.77244365
1314362327.70946598,-0.05372002,0.86231381,-0.77364194
1314362327.76865029,-0.05593121,0.86208767,-0.77403617
1314362327.82070756,-0.05605944,0.86104506,-0.77175462
1314362327.86948943,-0.05091374,0.86402673,-0.77000421
1314362327.92161989,-0.05555094,0.86013126,-0.77024239
1314362327.96946335,-0.05208550,0.86313832,-0.76912582
1314362328.02081537,-0.05509720,0.86192423,-0.77157152
1314362328.06950450,-0.05279449,0.86198097,-0.76741362
1314362328.12148094,-0.05512061,0.86200655,-0.76741379
1314362328.16954613,-0.05432425,0.86136615,-0.76789981
1314362328.22494984,-0.05510736,0.86238563,-0.76714748
1314362328.26882410,-0.05407909,0.86220974,-0.76373225
1314362328.32161427,-0.05553265,0.86007839,-0.76541030
1314362328.36940861,-0.05189123,0.86322838,-0.76589489
1314362328.42063737,-0.05742546,0.86057925,-0.76270533
1314362328.46949077,-0.05400378,0.86295861,-0.76239169
1314362328.52066374,-0.05689351,0.86070341,-0.76294398
1314362328.56860948,-0.05199202,0.86190140,-0.76092595
1314362328.62359619,-0.05776921,0.86120707,-0.76152223
1314362328.66873741,-0.05484183,0.86383677,-0.76029968
1314362328.71764326,-0.05756989,0.86055756,-0.76056659
1314362328.77153945,-0.05503930,0.86138332,-0.75707221
1314362328.82065296,-0.05607155,0.86308664,-0.76036495
1314362328.86948776,-0.05420131,0.85958999,-0.75701046
1314362328.92070150,-0.05958166,0.86181980,-0.75747162
1314362328.96864057,-0.05453876,0.86342180,-0.75759542
1314362329.02144003,-0.05860328,0.86066037,-0.75727230
1314362329.06961870,-0.05441583,0.86123550,-0.75582749
1314362329.12064004,-0.06016047,0.86053497,-0.75588518
1314362329.17272043,-0.05534937,0.86381048,-0.75737667
1314362329.22064018,-0.05785366,0.86099726,-0.75387704
1314362329.26950908,-0.05693924,0.86175835,-0.75450093
1314362329.32852483,-0.05797577,0.86010545,-0.75374317
1314362329.36968279,-0.05852280,0.86291021,-0.75339323
1314362329.42145586,-0.06051859,0.85887563,-0.75522244
1314362329.46866083,-0.05530673,0.86263263,-0.75454754
1314362329.52150464,-0.05962252,0.85897946,-0.75396389
1314362329.56948900,-0.05737462,0.86062270,-0.75505424
1314362329.62163091,-0.05741423,0.86152077,-0.75559998
1314362329.66948771,-0.05577371,0.86056310,-0.75120431
1314362329.70944977,-0.05911789,0.86152595,-0.75435644
1314362329.76861644,-0.05985236,0.85948294,-0.75317580
1314362329.82147336,-0.05949727,0.86162704,-0.75156122
1314362329.86948633,-0.05699007,0.86233014,-0.74846983
1314362329.91835308,-0.06082670,0.86023527,-0.75109071
1314362329.96948051,-0.05607963,0.86451608,-0.75125164
1314362330.02046371,-0.05978008,0.86071658,-0.74955791
1314362330.06950855,-0.05689855,0.86195564,-0.74926686
1314362330.12146878,-0.06003641,0.86046183,-0.74930245
1314362330.16866398,-0.05610926,0.86230963,-0.74747962
1314362330.21761370,-0.06109111,0.86110234,-0.74856293
1314362330.26849222,-0.05700831,0.86360580,-0.74861467
1314362330.32064939,-0.06176358,0.85830879,-0.74871498
1314362330.36948729,-0.05611336,0.86190408,-0.74532986
1314362330.42148685,-0.06088758,0.86299634,-0.74722356
1314362330.46950769,-0.05862353,0.86270350,-0.74601734
1314362330.50944424,-0.06093759,0.86018240,-0.74613190
1314362330.56866360,-0.06022259,0.85955757,-0.74796456
1314362330.62260556,-0.06011260,0.86208093,-0.74583018
1314362330.66866994,-0.05921457,0.86091214,-0.74469614
1314362330.72147870,-0.06067502,0.86272591,-0.74600160
1314362330.76973748,-0.05728999,0.86460340,-0.74635726
1314362330.81766939,-0.06099454,0.86029583,-0.74479419
1314362330.86951208,-0.05877313,0.86128336,-0.74413675
1314362330.92147040,-0.06253351,0.85879225,-0.74554259
1314362330.96865511,-0.05698283,0.86469650,-0.74352235
1314362331.02147627,-0.06224665,0.85929561,-0.74526143
1314362331.06870055,-0.05712423,0.86429256,-0.74138057
1314362331.12062144,-0.06243272,0.86042678,-0.74367040
1314362331.16853166,-0.05872015,0.86290240,-0.74079120
1314362331.21762776,-0.06195451,0.86323285,-0.74446899
1314362331.26950026,-0.05829914,0.86175090,-0.74075830
1314362331.32146168,-0.06089180,0.86076039,-0.74076623
1314362331.36855173,-0.05951342,0.86417830,-0.74017560
1314362331.42278433,-0.06107584,0.86153424,-0.74145353
1314362331.46854448,-0.05902530,0.86265701,-0.74134374
1314362331.52157140,-0.06282344,0.85775596,-0.74367291
1314362331.56945324,-0.05759620,0.86367273,-0.74247658
1314362331.62066984,-0.06247845,0.86117417,-0.74206847
1314362331.66949749,-0.06049810,0.86203128,-0.74088722
1314362331.72225761,-0.06062330,0.86029887,-0.74544370
1314362331.76862240,-0.05716302,0.86211258,-0.74002457
1314362331.82371163,-0.06395333,0.85978556,-0.74174052
1314362331.86962128,-0.05854424,0.86202759,-0.74251890
1314362331.92062688,-0.06216630,0.85950994,-0.74163544
1314362331.96947956,-0.05861949,0.86229640,-0.74373293
1314362332.02059865,-0.06114396,0.86182642,-0.74481428
1314362332.06952119,-0.05820667,0.86023128,-0.74168086
1314362332.12065816,-0.06172183,0.85939640,-0.74335337
1314362332.16858673,-0.05823405,0.86163592,-0.74196136
1314362332.21749330,-0.06255066,0.86095828,-0.74555981
1314362332.26855898,-0.05932035,0.86113745,-0.74188608
1314362332.32059455,-0.05975359,0.86167991,-0.74446464
1314362332.37755489,-0.05799798,0.86331862,-0.74464405
1314362332.41942573,-0.06302976,0.86041766,-0.74222875
1314362332.46856761,-0.05901621,0.86140776,-0.74361497
1314362332.52050376,-0.06201676,0.85991240,-0.74364257
1314362332.56963611,-0.05731458,0.86175990,-0.74258018
1314362332.62048674,-0.06222717,0.86206597,-0.74232900
1314362332.66964221,-0.05967116,0.86265719,-0.74071002
1314362332.72098184,-0.06154687,0.85976928,-0.74267513
1314362332.76952410,-0.05977610,0.85959935,-0.74055898
1314362332.82069087,-0.05982474,0.86255938,-0.74326766
1314362332.86948276,-0.05976179,0.86086881,-0.74016511
1314362332.90945363,-0.06271441,0.86142445,-0.74141300
1314362332.96861911,-0.06322908,0.86106724,-0.74318445
1314362333.02512932,-0.06061914,0.86192721,-0.74290621
1314362333.06962585,-0.05996223,0.85961026,-0.74137491
1314362333.12067127,-0.06177153,0.86167121,-0.74162889
1314362333.16861749,-0.05682212,0.86492020,-0.74083108
1314362333.22053075,-0.06141353,0.86139756,-0.74026436
1314362333.26951766,-0.05893277,0.86225760,-0.73985934
1314362333.31756473,-0.06120003,0.85977691,-0.74372864
1314362333.37256455,-0.05800219,0.86087757,-0.74274743
1314362333.41745567,-0.06265032,0.86133432,-0.74489743
1314362333.46964097,-0.05735318,0.86242813,-0.74540532
1314362333.52066946,-0.06006593,0.86039346,-0.74299699
1314362333.56976867,-0.05827574,0.86166859,-0.74491608
1314362333.62062716,-0.05943413,0.86298972,-0.74807900
1314362333.66951227,-0.05825959,0.85962999,-0.74489987
1314362333.71251869,-0.06100167,0.86006749,-0.74720818
1314362333.76861334,-0.06021238,0.86031896,-0.74770129
1314362333.81750679,-0.05857174,0.86129421,-0.74533290
1314362333.86963010,-0.05850962,0.86257917,-0.74641240
1314362333.91780210,-0.06090908,0.86058331,-0.74787766
1314362333.96953273,-0.05575827,0.86384314,-0.74827600
1314362334.02049398,-0.06117360,0.85931236,-0.74788338
1314362334.06952524,-0.05798889,0.86206937,-0.74691528
1314362334.12049675,-0.05903349,0.86133325,-0.74844605
1314362334.17258549,-0.05802137,0.86299080,-0.74960774
1314362334.21748471,-0.06075852,0.86075580,-0.75216413
1314362334.26847959,-0.05848930,0.86186135,-0.75069976
1314362334.32061958,-0.06090807,0.86035335,-0.75015700
1314362334.36948156,-0.05794720,0.86183167,-0.74852133
1314362334.42058372,-0.05865803,0.86377728,-0.75099218
1314362334.46950722,-0.05844352,0.86223423,-0.74989480
1314362334.50847578,-0.05941994,0.86212116,-0.75021863
1314362334.56960893,-0.05988680,0.86188203,-0.75118303
1314362334.62248635,-0.06138604,0.86151576,-0.75113255
1314362334.66962242,-0.05630561,0.86166173,-0.74627841
1314362334.71749020,-0.05933050,0.86098373,-0.75114423
1314362334.76966166,-0.05641132,0.86249471,-0.75246322
1314362334.82048559,-0.06066510,0.85819352,-0.75093186
1314362334.86950111,-0.05799299,0.86145878,-0.74932623
1314362334.91747594,-0.05840598,0.86057323,-0.74947762
1314362334.96857452,-0.05819942,0.86198246,-0.75041556
1314362335.01748466,-0.06024076,0.86174846,-0.75026315
1314362335.06846881,-0.05694333,0.86145532,-0.75007081
1314362335.12049961,-0.05991947,0.85995531,-0.74969447
1314362335.16947436,-0.05959288,0.86159599,-0.74861443
1314362335.21746469,-0.05940171,0.86074293,-0.75235415
1314362335.26948881,-0.05790248,0.86121172,-0.75012428
1314362335.32144618,-0.06131180,0.86137432,-0.74991953
1314362335.36947012,-0.05793098,0.86070830,-0.75065887
1314362335.41744566,-0.06122842,0.86100143,-0.75085121
1314362335.46854448,-0.05851781,0.86146051,-0.74895400
1314362335.52055550,-0.06073934,0.85843748,-0.74986452
1314362335.56963825,-0.05561895,0.86348420,-0.75054640
1314362335.62051105,-0.06155185,0.86111647,-0.74939471
1314362335.66948318,-0.05809876,0.86158156,-0.74879652
1314362335.70951223,-0.06027747,0.86012638,-0.75333935
1314362335.76857829,-0.05863178,0.86046457,-0.75096583
1314362335.81744862,-0.06097007,0.86100131,-0.75110471
1314362335.86856508,-0.05773161,0.86107647,-0.74957669
1314362335.92153335,-0.06031821,0.85932148,-0.74957848
1314362335.97293472,-0.05778851,0.86210507,-0.75039279
1314362336.01745272,-0.05814764,0.86047059,-0.75201148
1314362336.07124853,-0.05894304,0.86006838,-0.74937063
